Погода в Амвросиевке

Украина / Донецкая область     47°47′43″N   38°28′47″E
темп.,
°C
ветер,
м/с
пор.,
м/с
влажн.,
%
обл.,
%
осадки,
мм/ч
давл.,
гПа
погр.,
м
17 октября, вс
вс1700:00+11св3348100 0.0 101537
03:00+11ссв3349100 0.0 101541
06:00+10ссв3555100 0.0 101584
09:00+12св4650100 0.0 1015226
12:00+17св3437100 0.0 1015640
15:00+18ссв3434100 0.0 10141098
18:00+14ссв364594 0.0 101599
21:00+12с355294 0.0 1015109
18 октября, пн
пн1800:00+11с345671 0.0 101684
03:00+12ссз2456100 0.0 1016105
06:00+12ссз3658100 0.0 1016158
09:00+12ссз3656100 0.0 1017284
12:00+15ссз334680 0.0 1017827
15:00+17зсз44425 0.0 10161336
18:00+13зсз3651100 0.0 1016129
21:00+11сз3751100 0.0 1017170
19 октября, вт
вт1900:00+9зсз2358100 0.0 101770
03:00+8з3559100 0.0 1017125
06:00+7з476185 0.0 1017221
09:00+9з5862100 0.0 10171055
12:00+9з5772100 0.1 1017808
15:00+11ссз465897 0.2 10161358
18:00+9ссз5668100 0.2 10191019
21:00+7сз37665 0.8 1021279
20 октября, ср
ср2000:00+5сз410555 0.0 1022294
03:00+4сз49685 0.0 1024257
06:00+3зсз38765 0.0 1025234
09:00+5сз57655 0.0 1027671
12:00+8сз564564 0.0 10271441
15:00+9сз563871 0.0 10271542
18:00+7сз224414 0.0 102817
21:00+5з2249100 0.0 102825
21 октября, чт
чт2100:00+5зюз225278 0.0 102819
03:00+4зюз225599 0.0 102811
06:00+3юз2255100 0.0 102723
09:00+7ююз354768 0.0 1027250
12:00+12юз564547 0.0 10261049
15:00+12ююз67435 0.0 10241040
18:00+8ююз5854100 0.0 1023296
21:00+6ююз387234 0.0 1022203